User: anonymous   Login
Location: Unspecified
(0.0000°N, 0.0000°E)
Time: 09:17:52
(UTC+00:00)
Language:

BEESAT 2 - Orbit

View from above orbital plane
View from above orbital plane
View from above satellite
View from above satellite

Ground track
Ground track

The orbit data is extracted from the following two-line orbital elements,

1 39136U 13015G   17086.91445015 +.00002059 +00000-0 +11969-3 0  9998
2 39136 064.8693 138.3011 0029130 295.3326 064.4782 15.14807736216576
Epoch (UTC): 27 March 2017 21:56:48
Eccentricity: 0.0029130
inclination: 64.8693°
perigee height: 501 km
apogee height: 541 km
right ascension of ascending node: 138.3011°
argument of perigee: 295.3326°
revolutions per day: 15.14807736
mean anomaly at epoch: 64.4782°
orbit number at epoch: 21657

The dashed part of the orbit path shows where the satellite is in the earth's shadow,  

DLR